Volver al catálogo

YUNYAO-1 21

ActivoMeteoSSO
NORAD 61241·PAYLOAD·🇨🇳 China
Este nombre de satélite aún no ha sido confirmado por fuentes oficiales.

Lanzado Sep 24, 2024 desde Jiuquan Satellite Launch Center

Loading…

Próximos Pases (próximas 24 horas)

TLE

ActualizadoSource: Space-Track

Época: Sep 14, 2026, 14:56 UTC

1 61241U 24174D   26257.62262225  .00006060  00000-0  20606-3 0  9990
2 61241  97.4386 269.2088 0009544 272.7115  87.3033 15.30785562109595

Sigue YUNYAO-1 21 en tiempo real con AllMySat

Download on the App Store